When you browse on this site, cookies collect data to enhance your experience and personalize the content and advertising you see.
Visit our Privacy Policy to learn more. By continuing to use the site, you agree to this use of cookies and data.
  • In Schweiz
  • Länderverzeichnis
  • Für 7 Tage
  • Wassertemperatur
  • Satellitenkarten
  • Wetterkarte
  • Widgets
  • user-avatar
    Anmelden

    Stündliche Wetter Tomakhiv

    Heute, 22 Juli, Montag

    Zeit Temperatur Niederschläge Wind Luftdruck Luftfeuchtigkeit
    00:00 +19°C° 0.1 mm 2 m/S 745 mmHg 92%
    01:00 +19°C° 0.1 mm 3 m/S 745 mmHg 92%
    02:00 +19°C° 0.1 mm 3 m/S 745 mmHg 93%
    03:00 +18°C° 0.7 mm 3 m/S 745 mmHg 94%
    04:00 +18°C° 0.7 mm 3 m/S 745 mmHg 96%
    05:00 +17°C° 0.7 mm 3 m/S 745 mmHg 97%
    06:00 +18°C° 0 mm 4 m/S 745 mmHg 95%
    07:00 +19°C° 0 mm 4 m/S 745 mmHg 92%
    08:00 +20°C° 0 mm 4 m/S 745 mmHg 90%
    09:00 +21°C° 0.4 mm 4 m/S 745 mmHg 86%
    10:00 +22°C° 0.4 mm 4 m/S 746 mmHg 81%
    11:00 +23°C° 0.4 mm 5 m/S 746 mmHg 77%
    12:00 +25°C° 0.3 mm 5 m/S 746 mmHg 73%
    13:00 +25°C° 0.3 mm 5 m/S 746 mmHg 69%
    14:00 +26°C° 0.3 mm 6 m/S 746 mmHg 65%
    15:00 +25°C° 0.1 mm 5 m/S 746 mmHg 66%
    16:00 +25°C° 0.1 mm 5 m/S 746 mmHg 67%
    17:00 +25°C° 0.1 mm 5 m/S 746 mmHg 68%
    18:00 +22°C° 0 mm 4 m/S 746 mmHg 72%
    19:00 +21°C° 0 mm 4 m/S 745 mmHg 75%
    20:00 +19°C° 0 mm 3 m/S 745 mmHg 79%
    21:00 +19°C° 0 mm 3 m/S 745 mmHg 82%
    22:00 +18°C° 0 mm 3 m/S 746 mmHg 85%
    23:00 +17°C° 0 mm 3 m/S 746 mmHg 88%

    Morgen, 23 Juli, Dienstag

    Zeit Temperatur Niederschläge Wind Luftdruck Luftfeuchtigkeit
    00:00 +17°C° 0 mm 3 m/S 746 mmHg 89%
    01:00 +16°C° 0 mm 3 m/S 745 mmHg 89%
    02:00 +16°C° 0 mm 3 m/S 745 mmHg 89%
    03:00 +14°C° 0 mm 3 m/S 745 mmHg 90%
    04:00 +14°C° 0 mm 3 m/S 745 mmHg 91%
    05:00 +13°C° 0 mm 3 m/S 745 mmHg 91%
    06:00 +14°C° 0 mm 3 m/S 745 mmHg 86%
    07:00 +15°C° 0 mm 4 m/S 745 mmHg 81%
    08:00 +17°C° 0 mm 4 m/S 745 mmHg 76%
    09:00 +19°C° 0 mm 5 m/S 745 mmHg 72%
    10:00 +20°C° 0 mm 5 m/S 745 mmHg 68%
    11:00 +21°C° 0 mm 5 m/S 745 mmHg 64%
    12:00 +22°C° 0 mm 6 m/S 745 mmHg 62%
    13:00 +22°C° 0 mm 6 m/S 745 mmHg 60%
    14:00 +23°C° 0 mm 6 m/S 744 mmHg 59%
    15:00 +22°C° 0.2 mm 5 m/S 745 mmHg 64%
    16:00 +21°C° 0.2 mm 5 m/S 745 mmHg 69%
    17:00 +21°C° 0.2 mm 5 m/S 745 mmHg 74%
    18:00 +20°C° 0.2 mm 4 m/S 744 mmHg 79%
    19:00 +19°C° 0.2 mm 4 m/S 744 mmHg 83%
    20:00 +18°C° 0.2 mm 3 m/S 744 mmHg 88%
    21:00 +17°C° 0 mm 3 m/S 744 mmHg 90%
    22:00 +17°C° 0 mm 3 m/S 744 mmHg 92%
    23:00 +16°C° 0 mm 3 m/S 745 mmHg 94%

    übermorgen, 24 Juli, Mittwoch

    Zeit Temperatur Niederschläge Wind Luftdruck Luftfeuchtigkeit
    00:00 +16°C° 0 mm 3 m/S 744 mmHg 95%
    01:00 +14°C° 0 mm 3 m/S 744 mmHg 95%
    02:00 +14°C° 0 mm 3 m/S 744 mmHg 96%
    03:00 +14°C° 0 mm 3 m/S 744 mmHg 96%
    04:00 +14°C° 0 mm 4 m/S 744 mmHg 97%
    05:00 +14°C° 0 mm 4 m/S 744 mmHg 97%
    06:00 +15°C° 0 mm 4 m/S 744 mmHg 95%
    07:00 +17°C° 0 mm 4 m/S 744 mmHg 93%
    08:00 +18°C° 0 mm 4 m/S 744 mmHg 91%
    09:00 +20°C° 0.3 mm 4 m/S 744 mmHg 84%
    10:00 +21°C° 0.3 mm 5 m/S 745 mmHg 77%
    11:00 +23°C° 0.3 mm 5 m/S 745 mmHg 71%
    12:00 +25°C° 0.1 mm 5 m/S 744 mmHg 68%
    13:00 +25°C° 0.1 mm 5 m/S 744 mmHg 65%
    14:00 +26°C° 0.1 mm 5 m/S 744 mmHg 62%
    15:00 +26°C° 0.2 mm 5 m/S 744 mmHg 63%
    16:00 +26°C° 0.2 mm 4 m/S 744 mmHg 64%
    17:00 +25°C° 0.2 mm 4 m/S 744 mmHg 66%
    18:00 +23°C° 0.1 mm 4 m/S 744 mmHg 71%
    19:00 +21°C° 0.1 mm 3 m/S 744 mmHg 76%
    20:00 +20°C° 0.1 mm 3 m/S 744 mmHg 81%
    21:00 +19°C° 0 mm 3 m/S 745 mmHg 83%
    22:00 +18°C° 0 mm 3 m/S 745 mmHg 86%
    23:00 +17°C° 0 mm 2 m/S 745 mmHg 88%

    25 Juli, Donnerstag

    Zeit Temperatur Niederschläge Wind Luftdruck Luftfeuchtigkeit
    00:00 +17°C° 0 mm 2 m/S 745 mmHg 89%
    01:00 +16°C° 0 mm 2 m/S 745 mmHg 91%
    02:00 +16°C° 0 mm 2 m/S 745 mmHg 93%
    03:00 +14°C° 0 mm 3 m/S 745 mmHg 92%
    04:00 +14°C° 0 mm 3 m/S 745 mmHg 92%
    05:00 +14°C° 0 mm 3 m/S 746 mmHg 92%
    06:00 +16°C° 0 mm 3 m/S 746 mmHg 86%
    07:00 +18°C° 0 mm 4 m/S 746 mmHg 81%
    08:00 +20°C° 0 mm 4 m/S 746 mmHg 75%
    09:00 +21°C° 0 mm 5 m/S 746 mmHg 69%
    10:00 +23°C° 0 mm 5 m/S 746 mmHg 64%
    11:00 +25°C° 0 mm 5 m/S 747 mmHg 58%
    12:00 +26°C° 0 mm 5 m/S 746 mmHg 57%
    13:00 +26°C° 0 mm 6 m/S 746 mmHg 56%
    14:00 +27°C° 0 mm 6 m/S 746 mmHg 55%
    15:00 +26°C° 0 mm 6 m/S 746 mmHg 57%
    16:00 +26°C° 0 mm 5 m/S 746 mmHg 58%
    17:00 +26°C° 0 mm 5 m/S 746 mmHg 59%
    18:00 +23°C° 0 mm 5 m/S 746 mmHg 65%
    19:00 +22°C° 0 mm 4 m/S 746 mmHg 70%
    20:00 +20°C° 0 mm 4 m/S 745 mmHg 75%
    21:00 +20°C° 0 mm 4 m/S 746 mmHg 78%
    22:00 +19°C° 0 mm 3 m/S 746 mmHg 82%
    23:00 +18°C° 0 mm 3 m/S 746 mmHg 85%

    26 Juli, Freitag

    Zeit Temperatur Niederschläge Wind Luftdruck Luftfeuchtigkeit
    00:00 +18°C° 0 mm 3 m/S 746 mmHg 88%
    01:00 +18°C° 0 mm 3 m/S 746 mmHg 90%
    02:00 +17°C° 0 mm 3 m/S 746 mmHg 92%
    03:00 +17°C° 0 mm 3 m/S 746 mmHg 93%
    04:00 +17°C° 0 mm 3 m/S 746 mmHg 95%
    05:00 +16°C° 0 mm 3 m/S 746 mmHg 96%
    06:00 +18°C° 0 mm 3 m/S 746 mmHg 93%
    07:00 +19°C° 0 mm 4 m/S 746 mmHg 89%
    08:00 +20°C° 0 mm 4 m/S 746 mmHg 86%
    09:00 +22°C° 0 mm 4 m/S 746 mmHg 80%
    10:00 +23°C° 0 mm 4 m/S 746 mmHg 74%
    11:00 +25°C° 0 mm 4 m/S 746 mmHg 69%
    12:00 +26°C° 0.2 mm 4 m/S 746 mmHg 67%
    13:00 +27°C° 0.2 mm 4 m/S 746 mmHg 65%
    14:00 +27°C° 0.2 mm 4 m/S 746 mmHg 63%
    15:00 +27°C° 0.6 mm 3 m/S 746 mmHg 65%
    16:00 +27°C° 0.6 mm 3 m/S 745 mmHg 68%
    17:00 +26°C° 0.6 mm 3 m/S 745 mmHg 70%
    18:00 +25°C° 0.2 mm 3 m/S 745 mmHg 76%
    19:00 +23°C° 0.2 mm 2 m/S 745 mmHg 82%
    20:00 +21°C° 0.2 mm 2 m/S 745 mmHg 87%
    21:00 +20°C° 0 mm 2 m/S 745 mmHg 88%
    22:00 +20°C° 0 mm 2 m/S 745 mmHg 90%
    23:00 +20°C° 0 mm 1 m/S 745 mmHg 91%

    27 Juli, Samstag

    Zeit Temperatur Niederschläge Wind Luftdruck Luftfeuchtigkeit
    00:00 +19°C° 0 mm 1 m/S 745 mmHg 91%
    01:00 +19°C° 0 mm 1 m/S 745 mmHg 91%
    02:00 +18°C° 0 mm 1 m/S 745 mmHg 91%
    03:00 +18°C° 0 mm 1 m/S 745 mmHg 91%
    04:00 +18°C° 0 mm 1 m/S 745 mmHg 91%
    05:00 +18°C° 0 mm 1 m/S 745 mmHg 91%
    06:00 +18°C° 0 mm 2 m/S 745 mmHg 88%
    07:00 +20°C° 0 mm 2 m/S 745 mmHg 85%
    08:00 +21°C° 0 mm 2 m/S 745 mmHg 81%
    09:00 +24°C° 0 mm 3 m/S 745 mmHg 75%
    10:00 +25°C° 0 mm 3 m/S 745 mmHg 68%
    11:00 +26°C° 0 mm 3 m/S 745 mmHg 61%
    12:00 +27°C° 0 mm 3 m/S 745 mmHg 57%
    13:00 +27°C° 0 mm 3 m/S 745 mmHg 54%
    14:00 +28°C° 0 mm 3 m/S 744 mmHg 50%
    15:00 +28°C° 0 mm 2 m/S 744 mmHg 51%
    16:00 +28°C° 0 mm 2 m/S 744 mmHg 51%
    17:00 +28°C° 0 mm 1 m/S 743 mmHg 52%
    18:00 +26°C° 0 mm 1 m/S 743 mmHg 59%
    19:00 +25°C° 0 mm 1 m/S 743 mmHg 66%
    20:00 +23°C° 0 mm 1 m/S 743 mmHg 73%
    21:00 +22°C° 0 mm 1 m/S 743 mmHg 76%
    22:00 +21°C° 0 mm 1 m/S 743 mmHg 80%
    23:00 +20°C° 0 mm 1 m/S 743 mmHg 84%
    Mehr zeigen